FW6320 Weather Reports


Display with metric or nautical units.
time (UTC)temp
F
wind
direction
speed
MPH
gust
MPH
rain 1hr
in
rain 24hr
in
rain mn
in
humidity
%
barometer
mb
20260508035521 61 0 0.0 0.0 0.00 0.00 0.00 77 1015.7
20260508035022 61 0 0.0 0.0 0.00 0.00 0.00 77 1015.7
20260508034539 61 0 0.0 0.0 0.00 0.00 0.00 76 1015.7
20260508034019 61 0 0.0 0.0 0.00 0.00 0.00 76 1015.6
20260508033520 61 0 0.0 0.0 0.00 0.00 0.00 75 1015.5
20260508033041 61 0 0.0 0.0 0.00 0.00 0.00 75 1015.6
20260508032521 61 0 0.0 0.0 0.00 0.00 0.00 75 1015.6
20260508032018 61 0 0.0 0.0 0.00 0.00 0.00 75 1015.6
20260508031554 61 0 0.0 0.0 0.00 0.00 0.00 75 1015.5
20260508031019 62 0 0.0 0.0 0.00 0.00 0.00 75 1015.4
20260508030519 62 0 0.0 0.0 0.00 0.00 0.00 75 1015.5
20260508030054 62 0 0.0 0.0 0.00 0.00 0.00 75 1015.5
20260508025518 62 0 0.0 0.0 0.00 0.00 0.00 74 1015.1
20260508025019 62 0 0.0 0.0 0.00 0.00 0.00 74 1015.2
20260508024535 62 0 0.0 0.0 0.00 0.00 0.00 74 1015.1
20260508024019 63 0 0.0 0.0 0.00 0.00 0.00 73 1015.1
20260508023518 63 0 0.0 0.0 0.00 0.00 0.00 73 1015.0
20260508023042 63 0 0.0 0.0 0.00 0.00 0.00 73 1015.0
20260508022517 63 0 0.0 0.0 0.00 0.00 0.00 72 1015.0
20260508022018 64 0 0.0 0.0 0.00 0.00 0.00 72 1014.9
20260508021536 64 0 0.0 0.0 0.00 0.00 0.00 71 1014.9
20260508021017 64 0 0.0 0.0 0.00 0.00 0.00 71 1014.8
20260508020520 64 0 0.0 2.0 0.00 0.00 0.00 71 1014.8
20260508020031 64 0 0.0 2.0 0.00 0.00 0.00 70 1014.8
20260508015518 65 74 0.0 2.0 0.00 0.00 0.00 69 1014.6
20260508015015 65 0 0.0 4.0 0.00 0.00 0.00 69 1014.7
20260508014535 65 0 1.0 7.0 0.00 0.00 0.00 68 1014.6
20260508014014 65 0 3.0 7.0 0.00 0.00 0.00 66 1014.6
20260508013519 65 0 0.0 0.0 0.00 0.00 0.00 67 1014.6
20260508013037 65 0 0.0 0.0 0.00 0.00 0.00 67 1014.6
20260508012518 66 0 0.0 0.0 0.00 0.00 0.00 67 1014.5
20260508012018 66 0 0.0 0.0 0.00 0.00 0.00 67 1014.5
20260508011535 66 0 0.0 0.0 0.00 0.00 0.00 67 1014.7
20260508011017 66 0 0.0 0.0 0.00 0.00 0.00 66 1014.5
20260508010515 66 0 0.0 0.0 0.00 0.00 0.00 66 1014.7
20260508010040 67 0 0.0 0.0 0.00 0.00 0.00 65 1014.7
20260508005518 67 0 0.0 0.0 0.00 0.00 0.00 63 1014.7
20260508005016 67 0 0.0 0.0 0.00 0.00 0.00 64 1014.5
20260508004535 68 0 0.0 2.0 0.00 0.00 0.00 62 1014.4
20260508004016 68 0 0.0 2.0 0.00 0.00 0.00 61 1014.4
20260508003521 68 88 1.0 3.0 0.00 0.00 0.00 59 1014.3
20260508003036 69 0 0.0 3.0 0.00 0.00 0.00 60 1014.5
20260508002518 69 88 1.0 3.0 0.00 0.00 0.00 59 1014.5
20260508002018 69 89 0.0 3.0 0.00 0.00 0.00 60 1014.5
20260508001537 70 0 0.0 6.0 0.00 0.00 0.00 60 1014.7
20260508001018 70 89 0.0 7.0 0.00 0.00 0.00 58 1014.8
20260508000518 70 77 2.0 7.0 0.00 0.00 0.00 56 1014.8
20260508000034 71 98 0.0 3.0 0.00 0.00 0.00 56 1014.9
20260507235517 71 0 1.0 3.0 0.00 0.00 0.00 56 1015.0
20260507235018 71 100 0.0 3.0 0.00 0.00 0.00 54 1014.9
20260507234541 71 98 0.0 5.0 0.00 0.00 0.00 54 1014.9
20260507234019 71 0 0.0 5.0 0.00 0.00 0.00 53 1014.7
20260507233518 71 82 1.0 5.0 0.00 0.00 0.00 57 1014.8
20260507233037 71 82 1.0 9.0 0.00 0.00 0.00 54 1014.8
20260507232518 71 83 4.0 9.0 0.00 0.00 0.00 52 1015.0
20260507232022 71 58 2.0 8.0 0.00 0.00 0.00 55 1014.9
20260507231544 71 83 3.0 8.0 0.00 0.00 0.00 54 1014.9
20260507231018 71 73 2.0 8.0 0.00 0.00 0.00 54 1015.0
20260507230521 71 63 3.0 8.0 0.00 0.00 0.00 54 1015.0
20260507230039 71 150 1.0 8.0 0.00 0.00 0.00 56 1015.1
20260507225520 71 90 2.0 8.0 0.00 0.00 0.00 55 1015.0
20260507225018 72 71 0.0 8.0 0.00 0.00 0.00 55 1015.1
20260507224549 72 0 4.0 8.0 0.00 0.00 0.00 53 1015.2
20260507224018 72 45 2.0 7.0 0.00 0.00 0.00 54 1015.3
20260507223518 71 75 3.0 6.0 0.00 0.00 0.00 53 1015.3
20260507223034 71 0 1.0 4.0 0.00 0.00 0.00 57 1015.4
20260507222516 71 69 1.0 7.0 0.00 0.00 0.00 56 1015.3
20260507222015 71 0 1.0 8.0 0.00 0.00 0.00 57 1015.4
20260507221539 71 80 3.0 8.0 0.00 0.00 0.00 54 1015.5
20260507221017 71 0 1.0 6.0 0.00 0.00 0.00 57 1015.5
20260507220519 71 65 2.0 8.0 0.00 0.00 0.00 57 1015.5
20260507220038 71 50 3.0 8.0 0.00 0.00 0.00 56 1015.4
20260507215519 71 63 3.0 10.0 0.00 0.00 0.00 55 1015.4
20260507215018 71 64 4.0 10.0 0.00 0.00 0.00 54 1015.6
20260507214538 71 63 3.0 8.0 0.00 0.00 0.00 55 1015.6
20260507214015 71 65 3.0 6.0 0.00 0.00 0.00 54 1015.6
20260507213515 72 61 0.0 3.0 0.00 0.00 0.00 52 1015.6
20260507213037 72 0 0.0 5.0 0.00 0.00 0.00 53 1015.6
20260507212515 72 59 2.0 5.0 0.00 0.00 0.00 54 1015.7
20260507212018 72 0 0.0 3.0 0.00 0.00 0.00 53 1015.7
20260507211536 72 53 1.0 4.0 0.00 0.00 0.00 51 1015.7
20260507211017 72 66 0.0 6.0 0.00 0.00 0.00 53 1015.9
20260507210515 72 69 2.0 6.0 0.00 0.00 0.00 51 1015.9
20260507210105 72 39 1.0 6.0 0.00 0.00 0.00 53 1015.9
20260507205518 72 0 1.0 7.0 0.00 0.00 0.00 53 1016.0
20260507205018 72 15 2.0 7.0 0.00 0.00 0.00 53 1015.9
20260507204535 72 32 2.0 8.0 0.00 0.00 0.00 53 1015.9
20260507204017 72 323 3.0 8.0 0.00 0.00 0.00 53 1016.0
20260507203520 72 11 3.0 8.0 0.00 0.00 0.00 53 1015.9
20260507203042 72 0 1.0 7.0 0.00 0.00 0.00 50 1016.0
20260507202523 72 322 1.0 6.0 0.00 0.00 0.00 52 1016.1
20260507202020 71 316 0.0 7.0 0.00 0.00 0.00 52 1016.2
20260507201540 71 315 1.0 7.0 0.00 0.00 0.00 52 1016.4
20260507201025 71 261 3.0 7.0 0.00 0.00 0.00 50 1016.5
20260507200520 71 301 1.0 7.0 0.00 0.00 0.00 52 1016.5
20260507200051 71 269 2.0 6.0 0.00 0.00 0.00 51 1016.6
20260507195518 71 282 2.0 6.0 0.00 0.00 0.00 52 1016.8
20260507195021 71 283 2.0 8.0 0.00 0.00 0.00 52 1016.8
20260507194542 71 323 3.0 10.0 0.00 0.00 0.00 54 1016.7
20260507194019 71 22 3.0 10.0 0.00 0.00 0.00 53 1016.8
20260507193523 71 304 1.0 7.0 0.00 0.00 0.00 54 1016.9
20260507193105 71 226 2.0 7.0 0.00 0.00 0.00 53 1017.1
20260507192520 71 289 1.0 7.0 0.00 0.00 0.00 56 1017.1
20260507192018 70 0 2.0 6.0 0.00 0.00 0.00 52 1017.2
20260507191547 70 350 0.0 9.0 0.00 0.00 0.00 55 1017.3
20260507191020 70 277 2.0 9.0 0.00 0.00 0.00 52 1017.5
20260507190518 70 314 1.0 10.0 0.00 0.00 0.00 55 1017.5
20260507190040 70 277 3.0 10.0 0.00 0.00 0.00 53 1017.4
20260507185518 70 5 3.0 10.0 0.00 0.00 0.00 55 1017.4
20260507185019 70 355 2.0 8.0 0.00 0.00 0.00 54 1017.5
20260507184535 70 334 3.0 8.0 0.00 0.00 0.00 57 1017.5
20260507184019 70 355 3.0 9.0 0.00 0.00 0.00 55 1017.6
20260507183523 70 277 2.0 9.0 0.00 0.00 0.00 52 1017.7
20260507183039 70 14 2.0 8.0 0.00 0.00 0.00 54 1017.7
20260507182519 69 277 4.0 10.0 0.00 0.00 0.00 56 1017.8
20260507182021 69 267 2.0 10.0 0.00 0.00 0.00 53 1017.9
20260507181540 69 330 3.0 9.0 0.00 0.00 0.00 57 1017.8
20260507181024 69 342 2.0 11.0 0.00 0.00 0.00 54 1018.1
20260507180520 69 324 3.0 11.0 0.00 0.00 0.00 54 1018.0
20260507180041 69 323 6.0 11.0 0.00 0.00 0.00 54 1018.2
20260507175519 69 355 4.0 11.0 0.00 0.00 0.00 55 1018.4
20260507175021 68 280 1.0 10.0 0.00 0.00 0.00 54 1018.5
20260507174538 68 20 3.0 11.0 0.00 0.00 0.00 54 1018.6
20260507174019 68 329 4.0 11.0 0.00 0.00 0.00 54 1018.8
20260507173520 68 5 4.0 9.0 0.00 0.00 0.00 56 1018.9
20260507173036 68 311 1.0 8.0 0.00 0.00 0.00 58 1019.1
20260507172519 68 271 2.0 8.0 0.00 0.00 0.00 54 1019.1
20260507172018 68 5 2.0 8.0 0.00 0.00 0.00 54 1019.2
20260507171535 68 306 3.0 9.0 0.00 0.00 0.00 54 1019.3
20260507171022 68 350 2.0 9.0 0.00 0.00 0.00 54 1019.4
20260507170517 67 323 2.0 11.0 0.00 0.00 0.00 58 1019.4
20260507170047 67 344 3.0 11.0 0.00 0.00 0.00 57 1019.4
20260507165519 67 348 3.0 11.0 0.00 0.00 0.00 56 1019.6
20260507165022 67 294 2.0 6.0 0.00 0.00 0.00 57 1019.6
20260507164543 67 355 2.0 10.0 0.00 0.00 0.00 59 1019.7
20260507164021 67 297 1.0 10.0 0.00 0.00 0.00 58 1019.7
20260507163519 66 240 4.0 10.0 0.00 0.00 0.00 60 1019.6
20260507163040 66 0 1.0 10.0 0.00 0.00 0.00 60 1019.6
20260507162518 66 21 3.0 10.0 0.00 0.00 0.00 61 1019.7
20260507162021 65 303 1.0 6.0 0.00 0.00 0.00 60 1019.8
20260507161539 65 305 2.0 6.0 0.00 0.00 0.00 62 1019.9
20260507161019 65 258 0.0 4.0 0.00 0.00 0.00 62 1019.9
20260507160518 64 323 2.0 7.0 0.00 0.00 0.00 63 1019.8
20260507160057 64 329 1.0 9.0 0.00 0.00 0.00 64 1019.9
20260507155521 64 297 3.0 9.0 0.00 0.00 0.00 63 1019.9
20260507155020 64 311 1.0 6.0 0.00 0.00 0.00 64 1019.9
20260507154541 63 0 1.0 9.0 0.00 0.00 0.00 63 1019.9
20260507154021 63 27 2.0 9.0 0.00 0.00 0.00 65 1020.0
20260507153519 63 348 3.0 9.0 0.00 0.00 0.00 65 1020.0
20260507153043 62 9 3.0 5.0 0.00 0.00 0.00 66 1020.1
20260507152520 62 333 2.0 5.0 0.00 0.00 0.00 67 1020.2
20260507152020 62 336 0.0 4.0 0.00 0.00 0.00 69 1020.2
20260507151542 62 0 0.0 6.0 0.00 0.00 0.00 68 1020.3
20260507151019 62 0 0.0 6.0 0.00 0.00 0.00 69 1020.3
20260507150518 62 316 1.0 6.0 0.00 0.00 0.00 69 1020.2
20260507150037 61 322 2.0 6.0 0.00 0.00 0.00 71 1020.2
20260507145517 61 337 2.0 9.0 0.00 0.00 0.00 71 1020.3
20260507145019 60 323 2.0 9.0 0.00 0.00 0.00 73 1020.4
20260507144550 60 348 2.0 6.0 0.00 0.00 0.00 72 1020.5
20260507144023 60 342 1.0 6.0 0.00 0.00 0.00 73 1020.6
20260507143519 60 0 0.0 4.0 0.00 0.00 0.00 74 1020.6
20260507143044 59 355 0.0 5.0 0.00 0.00 0.00 74 1020.6
20260507142520 59 0 1.0 5.0 0.00 0.00 0.00 76 1020.7
20260507142019 59 343 2.0 5.0 0.00 0.00 0.00 75 1020.7
20260507141541 58 304 1.0 4.0 0.00 0.00 0.00 77 1020.7
20260507141026 58 331 1.0 5.0 0.00 0.00 0.00 78 1020.8
20260507140520 57 328 1.0 5.0 0.00 0.00 0.00 80 1020.8
20260507140040 56 329 1.0 6.0 0.00 0.00 0.00 81 1020.8
20260507135518 55 292 1.0 6.0 0.00 0.00 0.00 83 1020.8
20260507135018 55 294 0.0 6.0 0.00 0.00 0.00 84 1020.8
20260507134536 54 0 0.0 0.0 0.00 0.00 0.00 85 1020.8
20260507134019 53 0 0.0 0.0 0.00 0.00 0.00 86 1020.8
20260507133520 53 0 0.0 0.0 0.00 0.00 0.00 88 1020.9
20260507133034 52 0 0.0 1.0 0.00 0.00 0.00 88 1020.9
20260507132520 52 0 0.0 4.0 0.00 0.00 0.00 89 1020.8
20260507132019 51 0 1.0 4.0 0.00 0.00 0.00 89 1020.6
20260507131533 51 293 0.0 4.0 0.00 0.00 0.00 90 1020.7
20260507131019 50 293 1.0 4.0 0.00 0.00 0.00 90 1020.8
20260507130520 50 0 0.0 4.0 0.00 0.00 0.00 90 1020.7
20260507130042 50 298 1.0 3.0 0.00 0.00 0.00 91 1020.6
20260507125521 49 0 0.0 0.0 0.00 0.00 0.00 91 1020.7
20260507125019 49 0 0.0 0.0 0.00 0.00 0.00 91 1020.6
20260507124540 49 0 0.0 0.0 0.00 0.00 0.00 91 1020.6
20260507124019 49 0 0.0 0.0 0.00 0.00 0.00 91 1020.5
20260507123518 48 0 0.0 0.0 0.00 0.00 0.00 91 1020.4
20260507123045 48 0 0.0 0.0 0.00 0.00 0.00 91 1020.4
20260507122518 48 0 0.0 0.0 0.00 0.00 0.00 91 1020.2
20260507122022 48 0 0.0 0.0 0.00 0.00 0.00 91 1020.2
20260507121538 48 0 0.0 2.0 0.00 0.00 0.00 91 1020.1
20260507121020 48 0 0.0 3.0 0.00 0.00 0.00 91 1019.9
20260507120519 48 0 0.0 3.0 0.00 0.00 0.00 91 1019.8
20260507120041 47 0 0.0 0.0 0.00 0.00 0.00 91 1019.7
20260507115520 47 0 0.0 0.0 0.00 0.00 0.00 90 1019.8
20260507115018 47 0 0.0 0.0 0.00 0.00 0.00 90 1019.8
20260507114548 47 0 0.0 0.0 0.00 0.00 0.00 90 1019.8
20260507114019 47 0 0.0 0.0 0.00 0.00 0.00 89 1019.9
20260507113519 47 0 0.0 0.0 0.00 0.00 0.00 89 1019.9
20260507113039 47 0 0.0 0.0 0.00 0.00 0.00 89 1020.0
20260507112518 47 0 0.0 0.0 0.00 0.00 0.00 89 1019.9
20260507112018 47 0 0.0 0.0 0.00 0.00 0.00 89 1019.9
20260507111543 47 0 0.0 0.0 0.00 0.00 0.00 89 1019.8
20260507111020 48 0 0.0 0.0 0.00 0.00 0.00 89 1019.8
20260507110518 48 0 0.0 0.0 0.00 0.00 0.00 89 1019.7
20260507110038 48 0 0.0 0.0 0.00 0.00 0.00 89 1019.7
20260507105519 48 0 0.0 0.0 0.00 0.00 0.00 89 1019.7
20260507105019 48 0 0.0 0.0 0.00 0.00 0.00 89 1019.4
20260507104541 48 0 0.0 0.0 0.00 0.00 0.00 89 1019.7
20260507104020 48 0 0.0 0.0 0.00 0.00 0.00 89 1019.5
20260507103518 49 0 0.0 0.0 0.00 0.00 0.00 88 1019.4
20260507103042 49 0 0.0 0.0 0.00 0.00 0.00 88 1019.4
20260507102518 49 0 0.0 0.0 0.00 0.00 0.00 88 1019.4
20260507102019 49 0 0.0 0.0 0.00 0.00 0.00 88 1019.5
20260507101538 50 0 0.0 0.0 0.00 0.00 0.00 88 1019.3
20260507101023 50 0 0.0 0.0 0.00 0.00 0.00 88 1019.2
20260507100521 50 0 0.0 0.0 0.00 0.00 0.00 88 1019.0
20260507100036 50 0 0.0 0.0 0.00 0.00 0.00 88 1018.8
20260507095516 50 0 0.0 1.0 0.00 0.00 0.00 88 1018.6
20260507095020 50 0 0.0 3.0 0.00 0.00 0.00 88 1018.5
20260507094540 50 0 0.0 3.0 0.00 0.00 0.00 88 1018.4
20260507094019 50 344 1.0 3.0 0.00 0.00 0.00 88 1018.4
20260507093516 50 0 1.0 3.0 0.00 0.00 0.00 88 1018.5
20260507093045 51 0 0.0 3.0 0.00 0.00 0.00 87 1018.4
20260507092520 51 0 1.0 3.0 0.00 0.00 0.00 87 1018.4
20260507092019 51 347 1.0 5.0 0.00 0.00 0.00 87 1018.4
20260507091541 51 349 1.0 5.0 0.00 0.00 0.00 87 1018.5
20260507091019 51 344 1.0 6.0 0.00 0.00 0.00 87 1018.4
20260507090522 51 344 2.0 6.0 0.00 0.00 0.00 87 1018.3
20260507090042 51 336 2.0 6.0 0.00 0.00 0.00 87 1018.2
20260507085519 51 343 1.0 4.0 0.00 0.00 0.00 87 1018.2
20260507085018 51 338 1.0 4.0 0.00 0.00 0.00 87 1018.3
20260507084540 51 333 0.0 4.0 0.00 0.00 0.00 87 1018.3
20260507084019 51 333 1.0 4.0 0.00 0.00 0.00 87 1018.3
20260507083516 51 338 1.0 3.0 0.00 0.00 0.00 87 1018.3
20260507083040 51 339 0.0 3.0 0.00 0.00 0.00 87 1018.3
20260507082516 51 338 1.0 3.0 0.00 0.00 0.00 87 1018.4
20260507082020 52 333 1.0 3.0 0.00 0.00 0.00 87 1018.4
20260507081541 52 0 0.0 4.0 0.00 0.00 0.00 87 1018.5
20260507081020 52 330 0.0 4.0 0.00 0.00 0.00 87 1018.5
20260507080522 52 333 2.0 4.0 0.00 0.00 0.00 87 1018.2
20260507080035 52 342 1.0 4.0 0.00 0.00 0.00 87 1018.2
20260507075521 52 340 1.0 6.0 0.00 0.00 0.00 87 1018.0
20260507075020 52 341 2.0 6.0 0.00 0.00 0.00 87 1018.1
20260507074542 52 330 1.0 4.0 0.00 0.00 0.00 87 1017.9
20260507074019 52 313 1.0 5.0 0.00 0.00 0.00 87 1017.8
20260507073521 52 309 1.0 5.0 0.00 0.00 0.00 87 1018.0
20260507073035 52 350 1.0 5.0 0.00 0.00 0.00 87 1017.9
20260507072518 52 323 1.0 5.0 0.00 0.00 0.00 88 1018.0
20260507072015 52 320 0.0 4.0 0.00 0.00 0.00 87 1018.0
20260507071535 52 0 0.0 4.0 0.00 0.00 0.00 87 1018.1
20260507071016 52 329 0.0 4.0 0.00 0.00 0.00 87 1018.2
20260507070516 52 0 0.0 3.0 0.00 0.00 0.00 87 1018.1
20260507070036 52 0 1.0 4.0 0.00 0.00 0.00 87 1018.2
20260507065515 52 0 1.0 4.0 0.00 0.00 0.00 87 1018.1
20260507065015 52 329 0.0 3.0 0.00 0.00 0.00 87 1018.1
20260507064534 52 0 0.0 3.0 0.00 0.00 0.00 87 1018.2
20260507064019 52 0 0.0 3.0 0.00 0.00 0.00 87 1018.1
20260507063520 52 0 0.0 2.0 0.00 0.00 0.00 87 1018.1
20260507063033 51 0 0.0 2.0 0.00 0.00 0.00 86 1018.0
20260507062519 52 0 0.0 1.0 0.00 0.00 0.00 86 1018.1
20260507062018 52 0 0.0 0.0 0.00 0.00 0.00 85 1018.1
20260507061537 52 0 0.0 0.0 0.00 0.00 0.00 85 1018.0
20260507061018 52 0 0.0 0.0 0.00 0.00 0.00 85 1017.8
20260507060516 52 0 0.0 0.0 0.00 0.00 0.00 85 1017.8
20260507060036 52 0 0.0 0.0 0.00 0.00 0.00 85 1017.8
20260507055517 53 0 0.0 0.0 0.00 0.00 0.00 85 1017.7
20260507055017 53 0 0.0 0.0 0.00 0.00 0.00 85 1017.7
20260507054539 53 0 0.0 2.0 0.00 0.00 0.00 84 1017.6
20260507054020 53 0 0.0 2.0 0.00 0.00 0.00 84 1017.6
20260507053519 53 348 0.0 3.0 0.00 0.00 0.00 84 1017.4
20260507053032 53 0 0.0 3.0 0.00 0.00 0.00 84 1017.5
20260507052519 53 348 0.0 3.0 0.00 0.00 0.00 84 1017.4
20260507052018 53 348 0.0 3.0 0.00 0.00 0.00 84 1017.4
20260507051541 53 0 0.0 5.0 0.00 0.00 0.00 84 1017.4
20260507051016 54 348 1.0 5.0 0.00 0.00 0.00 84 1017.3
20260507050516 54 346 1.0 5.0 0.00 0.00 0.00 83 1017.2
20260507050040 54 355 1.0 4.0 0.00 0.00 0.00 83 1017.3
20260507045519 54 0 0.0 3.0 0.00 0.00 0.00 83 1017.4
20260507045016 54 0 1.0 5.0 0.00 0.00 0.00 82 1017.4
20260507044535 54 348 1.0 5.0 0.00 0.00 0.00 82 1017.4
20260507044015 54 344 1.0 3.0 0.00 0.00 0.00 81 1017.5
20260507043519 55 341 1.0 4.0 0.00 0.00 0.00 81 1017.7
20260507043032 55 340 1.0 5.0 0.00 0.00 0.00 81 1017.7
20260507042520 55 328 1.0 5.0 0.00 0.00 0.00 81 1017.8
20260507042019 55 0 1.0 5.0 0.00 0.00 0.00 80 1017.8
20260507041547 55 331 0.0 5.0 0.00 0.00 0.00 80 1017.8
20260507041018 55 0 1.0 5.0 0.00 0.00 0.00 79 1017.7
20260507040522 56 360 1.0 5.0 0.00 0.00 0.00 79 1017.6
20260507040042 56 5 2.0 6.0 0.00 0.00 0.00 79 1017.6